ECMWFFLT1_250_spd_132.txt.gz
Wind_Speed
40 38 40 42 43 42 42 43 42 40 39 38 37 38 38 38 37 36 36 36 37 38 39 41 44 45 46 46 48 50 52 54 56 57 58 59 60 61 61 61 60 61 61 62 61 60 59 59 60 61 63 64 65 67 69 70 72 74 76 77 79 80 80
39 37 37 35 34 34 34 36 37 38 37 37 36 35 35 36 36 35 35 36 37 38 39 41 42 44 45 46 48 50 52 54 55 56 58 59 60 61 61 61 61 61 61 61 60 58 57 58 61 63 65 66 68 69 71 73 74 76 78 79 80 79 79
37 34 33 30 28 28 30 32 35 36 37 37 36 35 36 37 37 36 36 35 36 37 38 40 42 44 46 47 49 50 52 53 54 56 58 59 60 61 61 61 61 61 61 60 59 59 60 61 63 64 66 68 71 72 73 75 77 78 78 78 78 77 78
38 34 33 33 32 31 33 36 38 40 40 40 40 40 40 39 38 37 36 36 37 38 39 41 43 45 46 47 48 50 51 53 55 57 58 59 60 60 60 60 61 61 60 60 61 62 64 65 65 66 68 69 70 71 73 75 77 78 77 77 76 77 78
42 39 37 37 38 38 40 42 43 42 42 42 42 41 39 38 38 39 39 39 39 40 42 43 44 45 46 47 49 51 53 54 56 57 58 58 59 59 60 60 60 60 60 62 64 65 66 67 68 70 71 70 69 70 73 75 75 75 76 76 76 78 80
45 44 42 42 43 45 45 45 43 42 42 42 42 42 40 40 41 42 42 42 42 42 42 43 44 45 47 49 51 52 54 55 56 57 58 59 60 60 59 59 59 61 64 65 65 66 68 70 71 71 71 70 70 71 72 72 73 74 75 76 77 78 79
47 47 46 46 46 46 45 44 43 43 44 45 46 46 45 45 45 45 44 43 44 44 43 44 46 48 49 51 52 53 55 56 58 59 59 59 59 58 58 60 62 64 65 65 67 69 71 72 71 71 70 70 70 70 70 71 73 74 75 76 77 77 76
49 49 48 48 48 47 46 45 44 45 46 48 49 49 48 47 46 46 45 45 46 46 46 48 49 49 50 50 52 54 56 58 59 58 57 57 57 58 61 63 64 65 66 68 70 71 71 70 69 69 68 68 68 69 71 72 73 74 74 74 75 75 75
49 50 49 49 50 49 49 48 47 46 46 48 49 48 47 46 45 45 46 47 48 49 49 49 48 48 49 51 53 56 57 58 58 56 57 58 60 62 64 65 65 67 69 71 71 70 69 68 66 65 66 67 68 70 71 72 72 72 72 72 73 74 74
48 49 49 50 50 50 49 49 47 46 46 46 46 47 47 46 45 45 46 47 49 50 49 49 48 49 51 53 56 57 58 59 58 59 60 62 64 65 66 67 69 70 71 70 69 68 66 64 62 63 65 67 68 69 70 70 69 69 70 71 72 74 76
47 47 48 48 48 47 47 47 46 46 47 46 46 46 46 45 45 46 46 48 49 50 50 50 51 52 54 56 58 59 60 60 61 62 64 65 66 68 69 71 71 69 68 67 65 63 61 60 61 63 65 66 67 67 67 67 67 68 70 72 74 77 79
46 45 46 45 45 44 44 44 44 46 46 45 44 44 44 45 46 47 47 48 49 50 50 51 52 53 54 56 58 59 60 62 63 64 66 68 70 71 71 70 67 65 64 62 60 58 58 59 61 62 63 64 65 65 65 65 68 70 72 74 77 79 81
44 43 43 43 43 42 42 42 43 43 43 43 44 44 44 45 46 47 48 48 49 50 50 50 51 53 55 57 58 60 61 64 65 67 69 71 71 70 67 64 62 60 58 56 56 56 57 59 60 61 62 62 62 63 65 67 70 72 74 76 79 81 83
42 43 43 43 43 43 43 43 44 43 43 44 45 45 46 46 47 47 47 48 48 49 50 51 53 55 57 59 61 62 64 67 68 69 69 68 66 64 61 59 57 56 54 53 54 55 56 58 58 59 59 60 61 64 67 70 72 74 76 78 79 81 83
42 42 42 42 42 43 44 45 45 44 45 46 46 46 47 48 49 49 49 49 50 51 52 54 56 58 60 62 63 65 66 67 67 66 64 62 59 58 56 55 53 52 52 53 54 54 55 57 57 58 59 62 64 67 69 71 73 75 77 78 80 82 83
42 41 42 42 43 44 44 44 44 44 46 47 47 47 47 48 49 50 52 52 52 53 54 55 57 58 60 61 62 62 62 62 61 60 58 56 55 54 52 50 50 50 51 52 53 54 55 57 58 60 62 64 66 68 70 72 74 75 77 79 81 82 83
42 41 41 41 42 43 43 44 44 46 48 48 48 48 48 47 48 49 50 51 52 52 53 54 54 56 56 57 57 57 57 57 56 55 53 53 52 50 48 47 48 50 50 51 52 54 56 59 61 63 64 66 68 69 71 73 74 76 77 79 81 82 82
43 42 42 42 43 44 45 46 47 49 50 49 48 48 48 47 47 47 47 48 48 49 49 50 51 51 52 52 53 53 53 53 52 51 50 50 48 46 45 46 48 49 49 50 52 55 58 61 63 65 66 67 69 70 72 74 75 76 78 79 81 81 81
44 44 44 44 45 46 47 48 50 50 50 49 49 48 47 46 46 45 45 45 45 46 46 47 47 48 49 49 50 50 51 51 49 49 48 47 46 45 45 46 47 48 49 51 54 58 61 63 65 66 68 68 69 71 73 74 75 76 78 79 79 79 79
44 45 45 46 46 47 48 49 50 50 49 49 48 47 46 45 44 44 43 43 44 44 44 45 45 46 47 47 48 49 49 48 47 47 46 45 45 45 45 47 48 49 51 54 57 60 62 65 67 68 68 69 70 71 73 74 75 76 77 78 78 78 78
44 45 46 46 47 48 48 49 49 49 49 48 47 46 45 44 44 43 43 43 43 43 43 43 43 44 45 46 47 48 47 47 47 46 46 46 46 46 46 48 50 51 53 56 58 61 64 66 68 68 68 69 70 72 73 74 75 76 77 77 76 76 77
45 45 45 46 46 47 48 48 49 48 48 47 47 46 45 44 44 44 43 43 42 42 42 42 42 43 45 46 46 46 46 46 47 46 46 47 48 48 48 50 51 53 55 57 60 63 65 67 67 67 68 70 71 72 74 74 75 76 75 75 75 75 76
45 45 45 45 46 46 47 48 48 48 47 47 46 46 45 44 43 43 42 42 41 41 41 41 42 43 44 45 45 45 46 46 47 47 47 49 49 50 51 52 53 54 57 59 62 64 66 67 67 67 69 70 71 73 73 74 74 74 74 74 74 74 74
45 45 45 46 46 47 47 48 48 48 47 47 46 45 44 43 42 42 42 41 41 42 42 42 43 44 44 44 45 45 46 47 48 48 49 50 51 52 53 54 55 56 58 61 64 66 66 66 66 67 69 70 71 72 73 73 73 73 73 73 73 73 72
45 45 46 47 47 47 48 48 48 47 46 46 45 43 42 42 42 42 42 42 42 42 42 42 43 44 44 45 45 46 47 48 49 50 51 51 52 53 55 56 57 58 60 63 64 65 65 65 66 67 68 70 71 72 73 72 72 72 72 71 71 71 69
45 46 46 47 47 47 48 47 47 46 45 44 43 42 42 42 42 42 43 43 43 43 43 43 43 44 44 45 45 46 47 49 50 52 52 53 54 55 56 57 58 59 61 62 63 64 64 64 65 66 68 69 71 72 72 72 72 71 70 70 70 69 67
45 45 46 46 47 47 47 47 46 45 44 43 43 42 42 42 43 43 43 44 44 43 43 43 43 43 44 45 45 46 48 49 51 52 52 53 54 55 56 57 57 59 60 61 62 63 64 64 65 66 67 69 70 71 71 71 71 70 69 69 69 67 64
44 44 45 45 46 46 46 46 45 45 44 44 43 43 42 43 43 44 44 44 44 44 44 43 43 43 44 45 46 47 48 50 51 52 52 53 54 54 55 56 57 58 59 61 62 63 64 64 64 66 67 69 71 71 71 71 70 69 69 69 68 65 62
43 43 43 44 44 45 45 45 45 44 44 44 43 43 43 43 44 44 45 45 44 44 44 44 43 44 45 46 47 48 49 50 51 52 52 53 53 54 55 56 57 58 59 60 62 63 63 63 64 65 68 69 71 71 71 70 69 68 68 67 66 63 60
42 42 42 43 43 44 44 44 44 44 44 44 44 44 44 44 45 45 45 45 45 45 45 45 44 44 45 46 47 48 49 50 51 52 52 53 53 54 55 56 57 58 59 60 62 62 63 63 63 65 67 69 70 70 69 69 67 67 67 66 66 64 61
42 42 43 43 43 44 44 44 44 44 44 44 45 45 45 45 46 46 46 46 46 46 46 45 45 45 46 46 47 48 49 50 51 52 52 52 53 54 56 57 57 57 59 60 61 62 62 62 63 65 67 69 70 70 69 67 66 66 66 65 66 65 63
43 43 44 44 44 45 45 45 45 45 45 46 46 46 46 46 47 47 47 47 47 46 46 46 46 46 46 47 47 48 49 51 52 52 53 53 54 55 56 56 56 58 59 60 61 61 61 62 64 66 67 69 69 69 68 66 65 65 65 65 66 66 66
43 44 44 45 45 45 45 46 46 46 47 47 47 47 47 47 47 48 48 48 48 47 47 47 47 47 47 48 49 49 50 51 52 52 53 53 54 55 56 56 56 58 59 60 61 61 61 62 64 66 67 69 69 69 67 65 64 65 65 65 66 67 67
44 44 45 45 46 46 46 47 47 48 48 47 47 48 48 48 48 49 50 50 49 49 49 48 48 48 49 50 50 50 50 51 52 52 52 53 54 55 56 56 56 58 59 60 61 61 62 63 64 66 67 68 68 68 66 64 64 65 66 66 65 66 68
44 45 45 45 46 47 47 48 48 49 49 49 49 49 49 49 49 50 51 51 51 51 51 50 50 50 51 50 51 51 51 51 52 52 52 53 54 55 56 56 56 57 59 60 61 62 62 63 64 66 67 68 68 67 65 64 64 65 66 66 65 66 68
45 45 46 46 46 47 48 49 49 50 50 50 50 50 50 50 50 51 52 52 53 53 53 52 52 52 52 51 51 51 51 51 52 52 53 54 55 56 57 56 56 58 59 61 62 63 63 63 64 65 67 67 67 66 64 64 65 65 66 66 66 66 67
45 46 46 46 47 48 49 50 50 50 50 51 51 51 51 51 51 52 53 54 54 54 55 55 54 53 53 52 52 52 52 52 53 53 54 55 56 56 57 56 56 58 60 61 62 63 64 65 65 66 67 67 67 66 64 64 65 66 66 67 67 67 67

ECMWFFLT1_250_spd_135.txt.gz
Wind_Speed
39 40 40 40 40 40 41 39 38 40 41 40 35 32 32 34 35 36 37 38 38 38 38 41 42 42 41 39 39 39 40 41 43 45 47 49 51 53 54 55 56 56 57 58 60 61 62 62 61 60 60 62 64 65 65 67 70 72 75 77 78 79 79
40 40 40 41 41 41 40 38 37 38 37 34 31 29 31 33 35 37 38 40 40 41 42 43 43 42 41 40 40 41 42 43 45 46 48 50 52 53 54 54 55 56 57 58 59 60 61 61 60 60 61 62 64 65 67 69 72 74 76 77 77 77 77
40 40 42 43 43 42 40 38 38 38 37 37 36 36 38 39 40 41 41 42 42 43 43 44 44 44 43 43 43 43 44 46 47 48 49 51 52 53 54 54 55 55 56 57 57 58 59 59 60 61 63 65 67 69 70 72 74 75 76 75 75 75 75
41 42 43 43 42 42 41 41 40 40 41 42 43 44 44 45 44 44 44 44 44 44 44 45 47 47 48 47 45 45 46 47 48 49 50 52 53 54 54 54 54 55 56 57 57 57 57 58 60 62 65 68 70 71 72 73 73 73 73 73 73 73 74
44 44 44 42 41 41 42 43 42 42 44 46 46 47 47 47 46 46 46 46 45 46 46 48 49 50 50 48 46 46 46 47 49 50 52 53 54 54 54 53 54 56 57 58 58 58 59 61 63 65 68 69 70 70 70 70 70 70 70 71 71 72 73
46 46 45 45 44 43 44 44 44 44 45 47 48 48 48 48 48 48 48 48 47 48 48 49 49 50 49 46 45 46 47 49 50 52 54 54 54 53 53 54 56 58 59 60 60 61 62 64 66 68 68 68 67 67 66 66 67 67 68 69 70 71 70
48 47 47 47 46 45 45 45 45 45 46 47 48 48 48 49 49 50 50 49 49 49 49 49 49 48 47 45 45 47 48 50 52 53 53 53 52 53 54 56 58 60 61 61 62 63 65 67 69 68 67 65 64 63 64 64 65 66 67 68 68 67 67
48 47 46 46 45 45 45 46 46 47 47 47 48 48 48 49 50 50 51 50 50 51 51 49 48 48 47 46 47 48 50 51 52 52 52 53 53 55 56 57 59 60 61 62 64 66 68 69 68 66 63 62 61 62 62 63 64 66 66 66 65 65 66
45 44 44 45 45 44 45 46 47 47 47 48 48 48 47 48 48 49 49 49 50 51 50 49 48 48 47 48 48 49 50 51 52 52 53 53 54 55 57 58 59 61 63 65 67 69 68 66 63 61 60 60 60 61 62 63 64 64 64 63 63 65 68
43 43 44 44 44 44 44 45 47 47 47 48 48 47 46 46 46 47 47 47 47 48 48 48 48 49 49 49 49 50 50 51 51 52 53 54 55 56 58 59 61 63 66 68 68 66 62 60 58 58 58 59 59 60 61 62 62 62 62 62 64 68 71
43 43 44 44 44 44 44 45 46 47 47 47 47 46 45 44 44 44 45 45 45 46 48 49 50 50 50 50 50 50 50 51 52 53 54 55 57 58 60 62 64 66 67 66 63 59 56 55 56 56 57 58 59 60 60 60 60 60 61 64 67 70 72
44 44 44 44 44 44 44 45 45 45 45 45 44 44 43 42 42 43 44 45 46 47 49 50 50 50 51 51 52 52 52 53 54 54 56 57 59 61 63 65 66 65 63 60 57 54 53 53 54 55 56 57 58 59 59 59 59 60 63 66 69 71 74
45 44 44 44 44 44 44 44 44 43 42 42 42 42 42 42 43 44 45 46 46 48 49 49 50 50 51 52 53 53 54 54 55 56 58 60 62 63 64 63 62 60 58 55 53 51 51 52 53 55 56 57 57 57 57 58 59 62 65 68 70 72 74
45 45 44 44 43 43 43 43 42 42 41 41 42 42 42 43 44 44 45 45 46 47 48 48 49 50 51 52 53 53 54 55 56 58 59 60 61 60 60 58 57 55 54 52 50 49 50 52 53 54 55 56 56 56 56 58 61 64 67 69 71 73 75
45 44 43 43 42 42 42 42 41 41 42 42 43 43 43 43 43 44 44 45 47 48 47 48 48 49 50 51 52 53 54 54 55 56 57 57 56 56 55 54 53 53 52 49 47 49 50 51 53 54 54 54 55 55 57 60 64 67 69 70 71 72 75
44 42 42 41 41 41 41 41 41 42 42 43 43 43 43 43 43 44 46 47 48 48 47 48 48 49 50 50 51 52 52 53 53 54 54 53 53 53 52 52 52 51 49 47 47 49 50 51 52 53 53 54 55 56 59 63 66 69 70 70 71 72 74
41 40 40 39 40 40 41 42 42 42 42 42 42 42 43 44 45 47 48 49 49 48 48 49 49 49 50 50 51 51 51 51 51 51 51 51 51 51 51 50 50 49 47 46 48 49 50 51 52 52 53 54 56 58 61 65 68 70 70 70 71 72 75
39 38 38 38 39 40 41 42 42 42 42 42 42 43 44 46 47 48 49 49 49 49 49 49 49 49 50 50 50 50 49 49 49 49 50 50 51 50 50 49 49 47 46 47 48 49 50 51 51 53 54 55 57 60 64 67 69 70 70 70 70 72 75
37 37 37 38 39 40 41 41 42 42 42 43 43 44 46 47 48 49 49 49 49 49 49 49 49 50 50 49 49 48 48 48 48 49 50 50 50 50 49 49 48 47 47 48 49 50 51 51 52 53 55 57 59 62 65 67 68 69 69 69 70 73 75
36 37 37 38 39 40 41 41 41 42 43 43 44 45 46 47 48 48 48 48 48 49 49 49 49 49 49 48 48 48 48 48 49 49 50 50 50 49 49 48 48 48 47 48 49 50 51 52 53 55 57 59 61 63 64 66 67 68 68 68 71 73 75
36 37 38 38 40 40 41 41 41 42 42 43 44 45 46 47 48 48 48 48 48 48 49 48 48 48 48 48 48 48 48 48 48 49 49 49 49 49 48 48 48 48 48 48 50 51 52 53 55 56 57 59 61 62 63 65 67 67 67 68 70 73 75
36 37 38 39 39 40 40 40 41 42 43 43 45 46 46 47 48 48 48 48 48 48 48 48 48 49 49 48 48 48 48 48 48 48 48 48 49 49 48 48 48 49 49 50 51 52 53 54 55 55 57 59 60 61 63 65 66 66 66 68 70 72 74
37 38 38 39 39 39 40 41 41 42 43 44 45 46 47 47 47 47 47 47 48 48 48 48 48 49 48 48 48 47 47 47 47 48 48 48 48 49 49 49 49 50 51 52 53 53 54 54 54 55 57 58 60 61 63 64 65 64 65 67 70 72 73
37 38 38 38 39 40 41 41 42 42 43 44 45 46 46 47 47 47 47 47 47 48 48 48 49 49 48 48 48 47 47 47 47 47 47 47 47 48 49 49 50 50 51 52 53 53 54 54 54 56 57 59 59 60 62 63 63 63 64 67 69 71 73
38 38 38 39 39 40 41 42 42 43 44 45 45 46 46 46 46 46 46 47 47 47 47 48 48 48 48 48 47 47 46 46 46 47 47 46 46 47 48 49 50 50 51 52 52 53 53 54 54 56 58 58 59 60 61 62 62 63 64 66 69 71 72
38 38 38 39 40 41 41 42 43 43 44 44 45 45 44 44 45 45 46 46 46 46 47 48 48 48 47 47 46 46 45 45 46 46 46 46 46 46 47 48 49 50 51 51 52 53 53 54 55 57 57 58 58 59 60 61 61 62 64 66 68 70 71
38 38 39 40 41 41 42 42 43 43 44 43 43 43 43 44 44 45 46 46 46 46 47 48 47 46 46 46 46 45 45 45 46 46 46 46 47 46 47 48 49 50 50 51 52 52 53 54 55 56 57 57 58 59 60 60 61 62 63 65 67 69 70
38 39 40 40 41 41 42 42 43 43 43 42 42 42 43 44 45 46 47 46 46 46 47 47 46 45 45 46 46 45 45 46 46 46 46 47 47 47 48 48 49 49 50 51 52 53 54 55 56 56 57 57 58 59 59 60 61 62 63 64 66 68 69
39 40 40 41 41 42 42 42 42 42 42 42 42 43 43 45 46 46 47 46 45 45 46 46 46 45 45 46 46 46 46 47 47 47 47 47 48 48 48 49 49 49 50 51 52 54 55 55 56 56 56 57 58 58 59 59 61 62 63 64 66 68 69
39 40 40 41 41 41 42 42 42 42 42 42 42 43 44 45 46 47 47 47 46 46 46 47 46 45 46 47 47 47 47 48 48 48 48 48 49 49 49 49 49 49 50 52 53 54 55 55 55 56 56 58 59 59 59 60 61 62 62 63 65 67 68
40 40 41 41 41 41 41 41 42 42 42 42 43 44 44 45 46 47 48 47 47 47 47 47 46 45 47 48 48 49 49 49 50 49 49 49 50 50 50 50 50 50 51 52 53 54 55 55 55 56 57 58 59 59 60 61 62 63 63 63 65 67 67
40 41 41 41 41 41 41 41 42 42 42 43 44 45 45 46 47 48 48 48 48 47 47 46 46 47 48 49 49 49 50 51 51 51 51 51 51 51 51 51 51 51 52 53 54 54 55 55 55 56 57 59 60 60 61 62 62 63 64 64 66 67 67
41 41 41 41 41 41 42 42 43 43 43 45 45 46 47 47 48 49 49 48 48 47 47 47 48 49 49 50 50 50 50 51 52 52 51 52 52 53 52 53 52 52 53 54 54 55 55 55 56 57 58 59 60 60 61 62 64 64 65 66 67 68 68
41 41 41 41 42 42 43 43 43 44 44 46 47 47 48 48 48 49 49 48 48 49 49 50 50 49 50 51 51 51 51 52 53 53 52 52 53 54 53 53 53 53 54 55 55 56 56 57 57 58 58 59 60 61 61 63 64 65 65 67 68 70 70
42 42 42 42 43 43 44 44 44 45 45 46 47 48 48 49 49 50 49 49 50 50 50 50 50 50 51 51 51 51 52 53 54 53 53 53 54 54 54 54 54 54 54 56 56 57 57 58 59 59 59 59 60 61 62 63 64 64 66 67 69 70 71
42 42 43 43 44 44 44 44 45 45 46 47 48 48 49 49 50 50 50 50 50 51 51 51 51 52 52 52 52 52 52 53 54 54 54 54 54 55 55 55 54 55 55 56 57 57 58 59 60 60 60 60 61 62 63 63 63 64 65 67 69 70 71
44 44 44 44 45 45 45 45 45 46 47 48 49 49 50 50 50 50 50 50 50 51 52 52 52 52 53 53 53 53 53 54 55 54 54 55 55 56 57 56 55 54 56 57 57 58 58 59 61 61 62 62 63 63 63 63 63 64 65 67 69 70 71

ECMWFFLT1_250_spd_138.txt.gz
Wind_Speed
39 38 37 37 37 38 38 38 39 40 40 41 42 44 44 44 41 40 40 40 38 37 37 38 40 40 40 40 40 41 43 45 46 47 47 48 48 49 49 50 51 53 54 56 57 58 59 60 61 61 60 61 62 64 65 66 69 71 74 76 76 74 71
38 37 37 37 38 38 39 40 40 41 41 42 44 45 45 45 42 41 42 43 43 43 43 43 44 43 43 42 42 43 45 46 47 47 47 48 49 49 49 50 51 53 54 56 57 58 59 59 58 58 60 62 63 64 66 69 71 73 75 74 72 70 69
37 37 37 37 38 39 40 41 41 42 43 44 45 45 44 44 43 42 44 46 46 47 46 46 46 46 45 45 45 46 47 47 47 47 48 48 49 48 49 50 51 53 55 57 58 58 58 58 58 59 60 62 64 66 69 71 73 73 72 70 69 68 68
39 38 38 39 39 40 41 42 43 44 45 45 45 45 44 44 44 44 45 46 47 48 48 48 48 47 47 47 48 48 48 47 47 47 48 48 48 48 48 50 52 53 55 56 57 57 57 57 58 60 61 63 66 68 70 71 71 69 68 68 67 67 67
42 41 40 41 41 42 43 44 45 46 46 46 46 46 46 46 46 45 46 46 47 48 48 48 48 48 48 48 48 47 47 47 46 46 46 47 47 48 49 50 52 53 54 55 56 56 57 58 59 61 63 65 68 69 69 68 67 67 67 66 66 65 66
43 42 42 42 42 43 45 45 46 47 48 48 48 47 47 47 47 46 46 47 47 48 48 48 48 47 47 46 46 45 45 45 44 45 46 47 48 49 50 51 52 53 54 55 56 57 58 59 61 63 65 67 68 67 66 64 64 65 65 64 64 64 65
43 43 43 43 43 44 45 45 46 48 49 49 47 46 46 46 46 47 47 47 48 48 48 48 47 46 45 44 43 43 43 43 44 46 48 49 50 50 51 52 53 54 55 56 56 57 58 60 63 65 66 66 65 63 62 62 62 63 63 63 63 63 64
44 44 44 45 45 45 46 46 48 48 48 47 45 44 45 46 46 47 47 48 48 48 48 47 46 44 43 42 42 43 44 45 47 48 50 50 51 51 52 53 54 54 55 56 57 58 59 61 64 65 65 63 62 61 60 60 60 60 61 62 62 63 63
45 45 45 46 46 47 47 48 48 47 45 45 44 44 45 46 46 47 47 48 48 47 46 45 44 42 42 43 44 45 46 47 48 49 50 50 51 52 53 53 54 55 55 56 58 59 60 62 62 62 61 60 59 58 58 58 58 59 60 61 61 62 62
45 45 46 47 47 48 48 47 46 45 44 45 45 45 46 46 47 47 47 47 47 46 44 43 42 42 43 44 45 46 47 48 49 50 50 51 51 52 53 54 54 55 56 57 58 59 60 60 59 58 57 57 56 55 56 57 57 59 60 60 61 61 62
46 46 47 47 46 46 46 45 45 44 45 45 46 46 46 46 47 46 46 46 45 44 42 42 42 43 44 45 45 46 48 49 50 51 51 51 52 53 54 54 55 55 56 57 57 58 57 57 57 56 55 54 54 54 55 56 58 59 59 60 61 61 61
47 46 46 46 45 45 45 45 45 45 46 47 47 47 47 46 46 46 45 44 43 42 42 43 43 44 45 45 46 48 50 51 51 51 51 52 52 53 54 54 55 55 56 56 56 56 55 55 55 55 54 53 53 53 55 56 58 58 59 60 61 61 61
46 46 46 46 45 46 46 46 46 46 47 47 47 47 47 46 45 44 44 43 43 43 43 44 44 45 46 47 48 50 51 51 51 51 51 52 52 53 54 54 54 55 55 55 55 55 54 54 54 53 52 52 53 54 55 57 57 58 59 60 60 61 62
46 46 46 46 47 48 47 46 47 47 48 48 48 47 46 45 44 43 42 42 42 43 43 44 45 46 47 48 50 51 51 51 51 51 51 51 52 53 53 54 54 54 55 55 54 53 53 53 52 51 51 52 53 54 55 56 57 58 59 59 60 61 63
47 47 46 47 48 48 47 47 48 48 48 48 47 46 45 43 42 42 42 42 42 43 43 44 45 46 48 49 50 51 51 51 51 51 51 51 52 52 53 54 54 54 54 54 53 52 52 51 51 51 51 52 53 54 55 56 57 57 58 59 60 62 64
49 49 48 49 49 48 48 48 48 47 47 46 45 44 43 42 42 41 42 42 42 43 44 45 46 47 48 50 50 51 51 51 50 50 50 51 52 53 53 53 54 54 54 54 53 52 51 51 51 51 51 52 53 53 54 56 56 57 57 59 61 63 64
49 49 49 50 50 49 48 47 46 46 45 45 43 42 41 41 41 41 42 42 43 44 45 46 47 48 49 50 50 51 51 50 50 50 50 51 51 52 52 53 53 54 54 54 52 51 50 50 50 50 51 52 52 53 54 55 56 57 58 59 61 62 63
46 47 48 48 48 47 46 45 45 44 44 42 41 41 41 41 42 42 43 43 44 44 45 46 47 48 49 50 50 50 50 49 49 50 50 50 51 51 52 53 54 54 55 54 52 50 49 50 50 50 51 51 52 53 54 56 56 57 58 60 61 62 62
45 45 45 44 44 44 43 43 43 42 41 40 40 40 41 41 42 43 43 44 44 45 46 46 47 48 49 49 49 49 48 48 49 49 49 49 50 50 52 53 53 54 54 53 52 50 50 50 50 50 51 52 53 54 55 56 57 58 59 60 61 61 62
44 43 42 42 42 42 42 41 41 40 40 39 40 40 41 42 43 43 44 44 45 45 46 46 47 48 48 48 48 48 47 47 48 48 48 49 49 51 51 52 52 53 53 53 52 51 50 50 51 51 51 52 53 54 55 56 57 57 59 60 60 61 61
43 42 41 40 40 40 40 39 39 39 39 39 40 41 42 42 43 43 44 44 45 45 46 46 47 48 48 47 47 46 46 46 47 47 48 49 49 50 50 50 50 51 52 52 52 51 51 51 50 51 51 52 53 54 54 55 56 57 58 59 59 60 61
40 39 38 38 38 38 38 38 38 39 39 39 40 41 42 42 43 43 44 44 45 45 46 47 47 47 47 46 45 45 45 46 46 47 48 48 48 49 48 48 48 49 50 50 51 51 50 49 50 50 51 52 52 53 54 55 56 57 57 58 59 60 60
37 36 36 36 36 37 37 38 38 39 39 39 40 41 42 42 43 43 44 45 45 45 46 47 47 47 46 45 44 44 45 45 46 46 47 47 47 48 48 47 48 48 49 49 50 50 49 49 49 50 51 51 52 52 53 55 56 56 57 58 59 59 60
35 34 34 35 36 37 37 37 38 39 39 39 40 41 42 43 43 43 44 45 45 46 46 46 46 45 44 43 43 43 44 45 45 46 46 46 47 47 47 47 48 48 49 49 49 49 48 49 49 50 51 51 52 52 53 55 55 56 57 58 59 59 59
34 33 33 34 36 37 37 37 38 39 39 40 40 41 42 43 44 44 44 45 45 45 45 45 44 43 43 43 43 43 44 45 45 46 46 46 47 47 48 48 48 48 49 49 49 49 48 49 50 50 51 51 51 52 54 55 56 57 58 58 58 58 59
33 33 33 34 36 36 36 36 37 38 39 40 41 41 42 43 44 44 45 45 44 44 44 43 43 43 43 43 43 43 44 45 46 46 46 46 47 48 48 48 49 49 49 50 50 49 49 49 50 51 51 51 52 53 54 55 56 57 58 58 58 59 59
33 32 33 34 35 36 36 36 37 39 40 41 41 42 43 44 44 44 44 44 43 43 43 43 43 43 43 44 44 44 45 46 47 47 46 47 48 49 49 49 49 50 50 51 51 50 49 50 51 51 52 51 52 53 54 55 56 57 58 58 59 59 59
32 32 33 34 35 36 36 37 38 39 40 41 42 42 43 44 44 45 44 43 42 42 43 44 44 44 44 45 45 46 46 46 46 47 47 48 48 49 49 49 49 50 51 51 51 50 50 50 51 52 52 52 52 54 55 56 57 57 58 58 59 59 59
31 32 32 34 35 36 37 38 39 40 40 41 42 43 43 44 45 44 44 43 42 43 44 45 45 45 46 46 46 46 46 45 46 48 49 49 48 48 48 49 49 50 51 52 51 51 51 51 52 53 53 53 53 54 56 57 57 58 58 58 59 59 60
31 31 32 33 35 36 37 39 40 40 41 42 42 43 44 44 45 44 43 43 43 43 44 45 46 47 47 47 46 46 46 46 48 50 51 50 49 48 48 48 49 49 51 52 52 51 52 53 53 53 54 54 54 55 56 58 58 58 58 58 59 59 60
31 31 32 34 35 37 38 39 40 40 41 42 43 43 44 44 44 44 43 43 44 44 45 46 47 48 48 47 46 47 47 47 47 49 51 51 50 49 49 49 49 49 50 52 53 52 53 54 54 54 54 55 55 56 57 58 58 58 59 59 60 60 60
32 32 33 35 36 37 39 40 41 41 42 42 43 43 44 44 44 44 44 45 45 45 46 47 48 48 47 47 47 48 48 48 47 48 49 50 50 51 50 49 50 50 51 52 53 53 53 54 55 55 55 55 56 57 58 59 59 59 59 60 61 61 62
33 33 34 36 37 38 40 41 41 42 42 42 42 43 44 45 45 45 45 46 46 47 48 48 48 48 48 49 49 49 49 50 49 49 49 50 51 52 52 51 51 51 51 51 53 53 54 56 57 57 56 56 57 57 58 60 60 60 60 60 62 62 63
34 35 36 37 38 39 40 41 42 42 42 42 42 43 44 45 45 46 46 46 47 49 49 48 49 49 50 50 50 50 51 51 51 51 51 52 52 53 53 53 52 51 50 51 53 55 56 57 59 58 58 57 57 57 58 59 60 61 61 61 62 63 64
36 37 37 38 39 40 41 42 43 42 42 42 43 43 45 45 46 47 47 47 48 49 50 50 50 51 51 50 51 52 52 52 52 53 54 54 54 54 55 54 52 51 52 53 54 56 58 59 60 60 60 58 58 58 58 59 60 61 62 62 63 64 65
38 38 38 39 40 41 42 42 43 43 43 43 44 45 46 46 47 49 49 49 49 50 51 53 53 53 52 52 53 53 53 54 54 55 56 56 56 56 56 53 51 52 55 56 57 58 60 61 61 62 61 60 59 58 59 59 60 61 62 63 64 65 66
38 38 39 40 41 42 42 43 43 44 44 45 46 47 48 49 50 51 51 51 52 52 54 55 55 55 55 55 55 55 54 55 56 57 57 58 58 58 55 52 51 54 58 59 59 60 61 62 63 63 62 61 60 59 59 60 60 61 62 64 65 66 67

ECMWFFLT1_250_spd_141.txt.gz
Wind_Speed
41 41 41 40 38 37 37 38 39 39 39 40 40 40 40 40 41 42 43 44 44 45 47 47 47 46 45 45 46 48 49 49 50 49 49 49 50 49 49 49 48 48 47 47 48 49 50 52 53 53 54 55 56 57 57 58 58 60 61 63 64 64 64
42 41 40 39 38 37 38 38 38 39 39 40 40 40 41 41 42 43 44 45 46 47 48 48 49 48 47 46 47 48 48 49 49 49 49 49 49 48 47 47 46 46 46 47 49 50 51 52 53 53 54 55 56 56 57 57 59 61 62 63 63 62 62
42 42 41 41 41 40 40 39 38 38 39 40 40 41 41 42 43 45 46 47 48 48 49 50 51 50 49 49 48 48 48 49 49 49 48 47 47 46 45 45 45 46 47 48 50 50 51 52 53 54 54 55 56 56 57 58 59 61 61 61 60 60 59
43 43 43 43 43 42 40 39 39 40 40 40 41 41 42 43 45 46 47 48 49 50 51 52 51 50 50 49 49 49 48 48 48 48 47 45 44 44 44 45 45 46 48 49 51 52 52 52 53 54 55 56 56 57 58 59 60 60 60 59 59 58 58
45 45 45 45 44 42 41 41 42 42 42 42 42 43 43 44 45 47 48 49 50 51 51 50 49 49 49 49 49 49 49 48 47 46 45 44 44 44 44 45 46 47 49 51 52 53 53 53 54 55 55 56 57 58 59 59 59 59 58 57 57 57 58
46 46 45 45 43 42 42 43 44 44 43 43 43 43 44 45 46 47 48 50 51 50 49 48 48 49 49 49 49 49 48 47 46 45 44 43 44 44 45 46 47 50 52 53 54 54 54 54 54 55 55 56 57 58 59 59 58 57 57 56 56 57 58
47 47 45 44 43 44 44 45 45 44 44 43 43 43 44 46 46 48 50 51 50 48 47 48 49 49 50 49 49 48 47 46 45 44 43 44 45 45 46 48 50 52 53 54 54 54 54 54 54 54 55 56 57 58 58 58 57 57 56 56 56 57 58
47 46 45 44 44 45 46 46 45 44 43 43 43 44 46 47 48 50 50 49 48 47 47 48 49 50 50 50 49 47 46 45 44 43 44 45 46 47 48 50 52 53 54 54 54 53 53 54 54 54 55 55 57 57 58 57 57 56 56 56 56 57 57
47 46 45 45 45 46 46 45 45 44 43 43 44 45 47 49 49 49 48 48 47 47 48 49 50 50 50 50 48 47 45 44 44 44 45 46 46 48 50 52 53 54 54 53 53 53 53 53 54 54 55 55 56 57 57 57 56 56 55 55 55 56 58
47 46 45 45 45 45 45 45 45 44 43 43 45 47 48 49 48 47 47 48 48 48 49 49 50 50 50 49 47 46 45 44 44 45 45 46 48 50 52 53 53 53 53 52 52 52 52 53 53 54 55 55 55 55 56 56 56 55 55 55 55 56 58
46 45 44 44 44 44 44 44 43 43 43 44 46 48 48 48 47 48 48 48 49 49 49 49 49 49 48 47 46 45 45 45 45 46 46 48 50 51 52 53 53 52 52 51 51 51 51 52 53 54 55 55 55 55 55 56 55 55 55 55 56 56 57
46 45 45 44 43 43 42 42 42 43 44 46 47 48 48 48 48 49 49 49 49 50 49 49 49 48 47 46 45 45 45 45 45 46 48 49 50 51 52 52 52 51 51 51 50 50 50 51 52 53 55 55 55 55 55 55 55 55 55 55 55 56 56
46 45 45 45 43 42 42 42 43 45 46 47 47 48 48 49 49 49 49 50 50 49 49 48 47 46 45 44 44 44 44 45 46 47 49 49 50 51 51 51 51 50 50 50 50 50 50 51 52 53 54 55 55 54 54 54 54 54 54 54 55 55 56
48 47 47 46 44 42 42 43 45 46 46 47 47 48 49 49 50 50 50 50 50 49 48 47 46 45 44 43 43 43 44 45 46 47 48 49 50 50 50 50 50 49 49 49 49 50 51 52 52 53 53 53 53 53 53 53 53 53 53 54 55 55 56
50 49 48 47 45 43 40 40 43 45 46 47 49 50 51 51 52 52 51 50 48 47 46 45 44 43 42 43 43 44 44 45 46 47 48 49 49 50 49 49 48 48 48 49 50 51 52 52 52 52 52 51 51 51 51 52 52 53 53 54 55 55 55
52 51 50 49 46 43 39 39 43 46 48 49 51 52 52 53 53 52 50 48 46 45 44 43 42 42 42 43 43 44 45 46 47 47 48 49 49 49 48 47 46 47 48 49 50 51 52 52 52 51 51 50 50 51 51 52 52 53 54 54 55 55 56
54 53 52 51 49 45 42 44 47 50 51 52 52 52 52 52 50 48 47 46 44 44 43 42 41 42 43 43 44 45 45 46 47 48 48 49 48 47 45 45 45 47 48 49 50 51 51 51 51 51 50 50 50 51 51 52 53 53 54 54 55 56 56
56 55 54 53 51 49 47 48 51 52 53 52 51 51 50 48 46 45 44 44 43 42 41 41 41 42 43 44 45 45 46 47 47 48 48 47 45 44 44 44 45 46 48 49 50 51 50 50 50 50 50 50 51 51 51 52 53 53 54 54 55 56 56
57 56 55 55 54 52 50 51 52 52 51 51 50 49 47 45 43 43 43 42 41 41 40 41 42 43 44 44 45 45 46 47 47 47 46 45 43 43 43 44 45 46 47 49 49 50 49 49 49 50 50 51 51 51 51 52 52 53 54 54 55 56 56
57 57 57 56 55 53 51 50 50 50 50 50 48 46 44 43 42 41 41 41 40 40 41 42 42 43 44 45 45 46 46 46 46 46 45 44 43 43 44 45 46 47 48 48 49 49 48 48 49 49 50 51 51 51 52 52 53 53 54 55 55 56 57
55 55 55 55 53 51 49 46 46 48 49 48 46 44 42 41 41 40 40 40 40 40 41 42 43 44 44 45 45 46 46 46 46 45 44 43 43 44 44 45 46 47 48 48 48 48 48 48 49 49 50 51 51 52 52 53 53 53 54 55 56 56 57
51 51 52 51 50 48 46 45 45 47 48 45 43 41 40 40 40 39 39 39 40 41 42 42 43 44 44 45 45 46 46 46 45 44 44 44 44 45 45 46 47 48 48 47 46 47 48 48 48 48 49 50 51 52 53 53 54 54 55 56 56 57 58
46 46 47 47 47 46 45 45 46 46 45 42 40 39 39 39 39 38 39 40 40 41 42 43 43 43 44 45 46 46 46 45 45 44 44 44 45 46 46 47 47 48 47 46 46 47 47 47 47 48 49 50 51 53 54 54 54 54 55 56 57 57 58
41 42 42 43 43 43 43 44 44 43 41 39 38 38 38 38 38 38 39 40 40 41 42 43 43 44 44 45 46 46 45 45 45 45 45 45 46 47 47 47 48 48 47 46 46 46 45 46 47 48 49 51 52 53 54 54 54 55 55 56 57 58 58
37 38 39 39 39 40 40 40 40 39 39 38 37 37 37 38 38 39 39 40 40 41 42 43 43 44 45 45 46 45 45 45 45 45 46 46 47 47 47 48 48 48 47 45 45 45 45 46 47 48 50 52 53 54 54 55 55 55 56 57 58 58 59
33 34 35 36 37 38 37 37 37 38 38 37 36 36 37 38 38 39 39 40 41 41 42 43 44 44 45 45 45 45 44 45 45 46 46 46 47 47 48 49 48 47 46 45 45 46 46 47 49 50 52 53 53 54 54 55 55 56 57 58 58 59 60
31 32 33 34 35 35 35 36 37 38 37 36 35 36 37 38 38 39 39 40 41 42 43 43 44 45 45 45 45 45 45 45 45 45 46 46 47 49 50 50 49 48 47 46 47 48 49 50 51 52 53 53 52 53 55 56 56 57 58 59 59 60 61
30 31 32 33 34 34 34 35 36 37 36 35 35 36 37 38 38 39 39 40 41 42 43 44 44 44 44 44 45 45 45 45 45 44 45 46 48 50 51 51 52 52 51 51 51 52 53 53 53 54 55 53 52 54 56 58 58 59 60 60 60 61 61
30 31 32 33 33 33 34 35 36 36 36 35 35 36 37 38 39 39 39 40 41 42 43 44 44 44 44 44 45 45 45 44 44 44 46 48 50 51 51 52 54 56 55 54 55 55 55 56 56 56 56 53 53 55 58 59 60 61 61 61 62 62 62
30 31 32 33 33 33 33 34 35 35 35 35 35 36 37 38 39 39 40 40 41 42 43 44 44 44 44 45 45 45 45 44 45 46 48 48 49 50 50 50 53 55 54 55 56 57 58 58 57 58 57 54 53 56 58 60 62 62 62 62 62 63 63
28 29 30 31 31 32 34 35 35 35 35 35 35 36 37 38 39 39 40 41 42 43 44 44 44 45 45 46 46 46 45 45 46 48 50 50 50 50 51 51 52 53 54 55 56 58 59 59 59 59 56 54 55 58 59 61 63 64 63 63 64 64 64
24 25 28 31 33 34 35 35 35 36 35 35 36 37 38 38 39 40 41 42 43 44 44 44 44 45 46 47 47 47 46 46 47 49 51 53 53 53 53 53 53 53 54 55 57 58 59 59 59 58 55 54 57 59 60 62 65 65 65 65 65 65 65
21 25 30 32 33 34 34 34 35 35 35 35 36 37 38 39 40 41 42 42 43 45 45 45 45 46 47 48 49 48 47 47 48 50 52 54 55 55 55 55 54 54 55 56 58 59 59 59 59 58 56 56 59 61 61 64 67 66 66 66 66 66 66
24 29 32 31 31 32 33 34 34 35 37 38 39 39 39 40 41 42 42 43 43 45 45 45 46 48 49 48 49 49 50 50 51 53 54 56 56 56 56 56 56 55 56 57 58 58 59 60 60 58 57 59 61 62 64 67 69 69 67 67 67 67 67
30 34 36 36 35 35 36 37 39 41 42 43 43 42 41 41 42 42 43 43 43 44 46 47 48 49 49 48 49 50 52 53 54 54 55 57 57 57 57 58 58 57 57 58 57 57 59 60 60 59 60 61 63 64 67 71 72 70 68 68 68 68 68
33 35 38 40 40 40 41 43 44 45 46 46 46 44 43 42 43 43 44 44 43 44 47 49 49 49 49 49 50 52 54 55 55 55 56 57 58 59 60 60 59 59 58 57 56 56 58 59 60 61 62 63 65 68 71 73 73 70 69 68 68 68 68
36 38 40 43 45 45 45 45 46 47 48 48 46 45 43 43 44 44 45 45 44 45 47 49 50 50 50 50 52 53 54 55 55 56 57 59 59 60 60 60 59 58 57 56 56 57 59 60 61 62 64 66 69 72 74 74 72 70 69 69 68 68 68